Volver al catálogo

COSMOS 2251 DEB

ActivoLEO
NORAD 34114·DEBRIS·🇷🇺 Russia

Lanzado Jun 16, 1993 desde Plesetsk Cosmodrome

Loading…

Próximos Pases (próximas 24 horas)

TLE

ActualizadoSource: Space-Track

Época: Sep 13, 2026, 01:25 UTC

1 34114U 93036KK  26256.05918525  .00004437  00000-0  90104-3 0  9995
2 34114  74.0547 241.8313 0042644 176.4739 253.9177 14.60880105918028

Sigue COSMOS 2251 DEB en tiempo real con AllMySat

Download on the App Store